Torna al catalogo

INTELSAT 4-F5

AttivoComunicazioniGEO
NORAD 6052·PAYLOAD· XX

Lanciato Jun 13, 1972 da Cape Canaveral Space Force Station

Loading…

TLE

AggiornatoSource: Space-Track

Epoca: Sep 14, 2026, 10:32 UTC

1 06052U 72041A   26257.43932604 -.00000344  00000-0  00000-0 0  9992
2 06052   5.5162 285.9658 0004484 295.5460  64.2235  1.00125427 47553

Traccia INTELSAT 4-F5 in tempo reale con AllMySat

Download on the App Store